Back to catalog

STARLINK-37173

AliveCommunicationsVLEO
NORAD 68536·PAYLOAD·🇺🇸 United States

Launched Mar 30, 2026 from Cape Canaveral Space Force Station

Loading…

Next Passes (next 24 hours)

TLE

FreshSource: CelesTrak SupGP

Epoch: Sep 14, 2026, 21:36 UTC

1 68536C 26068AE  26257.90048611 -.00003891  00000+0 -11499-3 0  2577
2 68536  53.1566 320.1791 0001210  95.2570  50.8538 15.34380934    11

Track STARLINK-37173 in real time with AllMySat

Download on the App Store